Big Bear Station Historical Data
Daily Summary for September 13, 2017 Units:  English    Metric   Both
« Previous Day
Next Day »
Daily Weekly Monthly Yearly Custom
  High: Low: Average:
Temperature: 63.9 °F 57.0 °F 60.4 °F
Dew Point: 44.8 °F 43.3 °F 44.1 °F
Humidity: 63 % 47 % 55 %
Wind Speed: 3.2 mph 0.0 mph 1.5 mph
Wind Gust: -999.0 mph - -
Wind:- - South
Pressure: 30.21 in 30.19 in -
Precipitation: 0.00 in    
Historical Graphs
 
 
Tabular Data for September 13, 2017
Time Temperature Dew Point Pressure Wind Wind Speed Wind Gust Humidity Rainfall Rate (Hourly)
00:14 63.9 °F 43.3 °F 30.21 in SE 3.2 mph -999.0 mph 47 % 0 in
00:30 63.7 °F 43.6 °F 30.21 in South 1.1 mph -999.0 mph 48 % 0 in
00:45 63.3 °F 43.8 °F 30.21 in SSW 2.2 mph -999.0 mph 49 % 0 in
01:00 63.1 °F 44.2 °F 30.21 in SSW 2.2 mph -999.0 mph 50 % 0 in
01:15 62.4 °F 43.5 °F 30.21 in South 2.2 mph -999.0 mph 50 % 0 in
01:30 62.1 °F 44.3 °F 30.21 in SSW 2.2 mph -999.0 mph 52 % 0 in
01:46 61.2 °F 43.9 °F 30.21 in Calm   -999.0 mph 53 % 0 in
02:01 61.3 °F 43.5 °F 30.21 in Calm   -999.0 mph 52 % 0 in
02:16 61.5 °F 44.2 °F 30.20 in South 2.2 mph -999.0 mph 53 % 0 in
02:31 60.6 °F 44.3 °F 30.20 in Calm   -999.0 mph 55 % 0 in
02:46 59.9 °F 44.2 °F 30.20 in Calm   -999.0 mph 56 % 0 in
03:02 59.4 °F 44.2 °F 30.20 in SSW 2.2 mph -999.0 mph 57 % 0 in
03:17 59.2 °F 44.0 °F 30.20 in South 1.7 mph -999.0 mph 57 % 0 in
03:32 58.6 °F 44.3 °F 30.19 in South 1.7 mph -999.0 mph 59 % 0 in
03:47 58.5 °F 44.7 °F 30.19 in SSW 2.2 mph -999.0 mph 60 % 0 in
04:02 58.1 °F 44.3 °F 30.19 in South 2.2 mph -999.0 mph 60 % 0 in
04:18 58.1 °F 44.3 °F 30.19 in Calm   -999.0 mph 60 % 0 in
04:33 57.6 °F 44.2 °F 30.19 in SSW 2.2 mph -999.0 mph 61 % 0 in
04:48 57.7 °F 44.8 °F 30.19 in SSW 2.2 mph -999.0 mph 62 % 0 in
05:06 57.0 °F 44.5 °F 30.19 in Calm   -999.0 mph 63 % 0 in
Big Bear CA Weather
Compliments of Weather Underground - 1.25 mb